When you browse on this site, cookies collect data to enhance your experience and personalize the content and advertising you see.
Visit our Privacy Policy to learn more. By continuing to use the site, you agree to this use of cookies and data.
  • In United Kingdom
  • List of Countries
  • For 7 days
  • Water Temperature
  • Satellite Maps
  • Weather Map
  • Weather Widgets
  • user-avatar
    Login

    Hourly Weather Bogota

    Today, 21 November, Wednesday

    Time Temperature Precipitation Wind Pressure Humidity
    00:00 +11°C° 1.1 mm 1 mps 549 mmHg 92%
    01:00 +10°C° 0 mm 0 mps 549 mmHg 91%
    02:00 +10°C° 0.4 mm 0 mps 549 mmHg 91%
    03:00 +10°C° 0.4 mm 0 mps 549 mmHg 91%
    04:00 +9°C° 0.4 mm 0 mps 549 mmHg 91%
    05:00 +10°C° 0.3 mm 0 mps 549 mmHg 90%
    06:00 +10°C° 0.3 mm 0 mps 550 mmHg 89%
    07:00 +11°C° 0 mm 0 mps 550 mmHg 86%
    08:00 +11°C° 0.2 mm 0 mps 551 mmHg 85%
    09:00 +13°C° 0.2 mm 1 mps 551 mmHg 83%
    10:00 +14°C° 0.2 mm 1 mps 552 mmHg 81%
    11:00 +14°C° 0.4 mm 1 mps 552 mmHg 78%
    12:00 +15°C° 0.4 mm 1 mps 551 mmHg 76%
    13:00 +15°C° 0.4 mm 1 mps 551 mmHg 73%
    14:00 +15°C° 0.5 mm 1 mps 551 mmHg 75%
    15:00 +15°C° 0.5 mm 1 mps 550 mmHg 77%
    16:00 +13°C° 0.5 mm 0 mps 549 mmHg 78%
    17:00 +12°C° 0.5 mm 0 mps 549 mmHg 83%
    18:00 +12°C° 0.5 mm 1 mps 549 mmHg 87%
    19:00 +11°C° 0.5 mm 1 mps 548 mmHg 91%
    20:00 +11°C° 0.6 mm 1 mps 549 mmHg 91%
    21:00 +10°C° 0.6 mm 0 mps 549 mmHg 90%
    22:00 +10°C° 0.6 mm 0 mps 550 mmHg 89%
    23:00 +10°C° 0.6 mm 0 mps 550 mmHg 89%

    Tomorrow, 22 November, Thursday

    Time Temperature Precipitation Wind Pressure Humidity
    00:00 +10°C° 0.6 mm 0 mps 549 mmHg 89%
    01:00 +10°C° 0.6 mm 0 mps 549 mmHg 89%
    02:00 +10°C° 0.3 mm 0 mps 549 mmHg 90%
    03:00 +10°C° 0.3 mm 0 mps 549 mmHg 90%
    04:00 +9°C° 0.3 mm 0 mps 549 mmHg 91%
    05:00 +10°C° 0.1 mm 0 mps 549 mmHg 89%
    06:00 +10°C° 0.1 mm 0 mps 550 mmHg 88%
    07:00 +11°C° 0.1 mm 0 mps 550 mmHg 86%
    08:00 +12°C° 0 mm 0 mps 551 mmHg 80%
    09:00 +15°C° 0 mm 1 mps 552 mmHg 74%
    10:00 +16°C° 0 mm 1 mps 553 mmHg 67%
    11:00 +16°C° 0.1 mm 1 mps 552 mmHg 68%
    12:00 +16°C° 0.1 mm 1 mps 552 mmHg 69%
    13:00 +16°C° 0.1 mm 1 mps 551 mmHg 69%
    14:00 +16°C° 0.3 mm 1 mps 550 mmHg 72%
    15:00 +15°C° 0.3 mm 1 mps 550 mmHg 75%
    16:00 +15°C° 0.3 mm 1 mps 549 mmHg 78%
    17:00 +14°C° 0.4 mm 1 mps 549 mmHg 82%
    18:00 +13°C° 0.4 mm 1 mps 549 mmHg 87%
    19:00 +11°C° 0.4 mm 1 mps 548 mmHg 92%
    20:00 +11°C° 0.5 mm 1 mps 549 mmHg 92%
    21:00 +11°C° 0.5 mm 1 mps 549 mmHg 91%
    22:00 +11°C° 0.5 mm 1 mps 550 mmHg 91%
    23:00 +11°C° 0.4 mm 1 mps 549 mmHg 91%

    Day after tomorrow, 23 November, Friday

    Time Temperature Precipitation Wind Pressure Humidity
    00:00 +10°C° 0.4 mm 0 mps 549 mmHg 91%
    01:00 +10°C° 0.4 mm 0 mps 549 mmHg 91%
    02:00 +10°C° 0.5 mm 0 mps 549 mmHg 91%
    03:00 +10°C° 0.5 mm 0 mps 548 mmHg 91%
    04:00 +10°C° 0.5 mm 0 mps 548 mmHg 91%
    05:00 +10°C° 0.5 mm 0 mps 549 mmHg 91%
    06:00 +10°C° 0.5 mm 0 mps 549 mmHg 90%
    07:00 +10°C° 0.5 mm 0 mps 549 mmHg 90%
    08:00 +11°C° 0.2 mm 0 mps 550 mmHg 87%
    09:00 +13°C° 0.2 mm 1 mps 551 mmHg 84%
    10:00 +14°C° 0.2 mm 1 mps 552 mmHg 81%
    11:00 +14°C° 0.4 mm 1 mps 551 mmHg 81%
    12:00 +14°C° 0.4 mm 1 mps 551 mmHg 81%
    13:00 +15°C° 0.4 mm 1 mps 550 mmHg 80%
    14:00 +14°C° 0.7 mm 1 mps 550 mmHg 83%
    15:00 +14°C° 0.7 mm 1 mps 549 mmHg 85%
    16:00 +14°C° 0.7 mm 1 mps 548 mmHg 87%
    17:00 +13°C° 0.5 mm 1 mps 548 mmHg 89%
    18:00 +12°C° 0.5 mm 1 mps 548 mmHg 91%
    19:00 +11°C° 0.5 mm 1 mps 548 mmHg 93%
    20:00 +11°C° 0.5 mm 1 mps 548 mmHg 93%
    21:00 +11°C° 0.5 mm 1 mps 549 mmHg 92%
    22:00 +11°C° 0.5 mm 1 mps 549 mmHg 92%
    23:00 +10°C° 0.8 mm 1 mps 549 mmHg 92%

    24 November, Saturday

    Time Temperature Precipitation Wind Pressure Humidity
    00:00 +9°C° 0.8 mm 0 mps 549 mmHg 91%
    01:00 +9°C° 0.8 mm 0 mps 548 mmHg 91%
    02:00 +9°C° 0.3 mm 0 mps 548 mmHg 91%
    03:00 +10°C° 0.3 mm 1 mps 548 mmHg 91%
    04:00 +9°C° 0.3 mm 1 mps 547 mmHg 91%
    05:00 +10°C° 0.1 mm 1 mps 548 mmHg 90%
    06:00 +10°C° 0.1 mm 1 mps 549 mmHg 88%
    07:00 +11°C° 0.1 mm 1 mps 549 mmHg 87%
    08:00 +13°C° 0.1 mm 1 mps 551 mmHg 79%
    09:00 +15°C° 0.1 mm 1 mps 552 mmHg 72%
    10:00 +18°C° 0.1 mm 1 mps 553 mmHg 64%
    11:00 +18°C° 0.4 mm 1 mps 552 mmHg 68%
    12:00 +16°C° 0.4 mm 1 mps 551 mmHg 72%
    13:00 +16°C° 0.4 mm 1 mps 550 mmHg 75%
    14:00 +16°C° 1 mm 1 mps 550 mmHg 78%
    15:00 +15°C° 1 mm 1 mps 549 mmHg 82%
    16:00 +14°C° 1 mm 1 mps 548 mmHg 85%
    17:00 +13°C° 0.8 mm 1 mps 548 mmHg 87%
    18:00 +13°C° 0.8 mm 1 mps 548 mmHg 89%
    19:00 +12°C° 0.8 mm 1 mps 548 mmHg 92%
    20:00 +11°C° 0.9 mm 1 mps 548 mmHg 92%
    21:00 +10°C° 0.9 mm 0 mps 549 mmHg 92%
    22:00 +10°C° 0.9 mm 0 mps 549 mmHg 92%
    23:00 +10°C° 1.3 mm 0 mps 549 mmHg 92%

    25 November, Sunday

    Time Temperature Precipitation Wind Pressure Humidity
    00:00 +10°C° 1.3 mm 0 mps 549 mmHg 92%
    01:00 +9°C° 1.3 mm 0 mps 548 mmHg 92%
    02:00 +9°C° 0.5 mm 0 mps 548 mmHg 92%
    03:00 +9°C° 0.5 mm 0 mps 548 mmHg 92%
    04:00 +9°C° 0.5 mm 0 mps 548 mmHg 92%
    05:00 +9°C° 0.2 mm 0 mps 548 mmHg 92%
    06:00 +11°C° 0.2 mm 1 mps 549 mmHg 91%
    07:00 +11°C° 0.2 mm 1 mps 549 mmHg 91%
    08:00 +12°C° 0.1 mm 1 mps 550 mmHg 86%
    09:00 +13°C° 0.1 mm 1 mps 551 mmHg 81%
    10:00 +14°C° 0.1 mm 1 mps 551 mmHg 76%
    11:00 +15°C° 0.2 mm 1 mps 551 mmHg 71%
    12:00 +16°C° 0.2 mm 1 mps 551 mmHg 65%
    13:00 +18°C° 0.2 mm 1 mps 551 mmHg 59%
    14:00 +18°C° 0.3 mm 1 mps 551 mmHg 62%
    15:00 +16°C° 0.3 mm 1 mps 550 mmHg 65%
    16:00 +16°C° 0.3 mm 1 mps 549 mmHg 68%
    17:00 +14°C° 0.3 mm 1 mps 549 mmHg 75%
    18:00 +13°C° 0.3 mm 1 mps 548 mmHg 82%
    19:00 +11°C° 0.3 mm 1 mps 548 mmHg 89%
    20:00 +11°C° 0.1 mm 1 mps 548 mmHg 89%
    21:00 +11°C° 0.1 mm 1 mps 549 mmHg 88%
    22:00 +11°C° 0.1 mm 1 mps 549 mmHg 88%
    23:00 +10°C° 0.2 mm 1 mps 549 mmHg 88%

    26 November, Monday

    Time Temperature Precipitation Wind Pressure Humidity
    00:00 +9°C° 0.2 mm 0 mps 548 mmHg 88%
    01:00 +9°C° 0.2 mm 0 mps 548 mmHg 88%
    02:00 +9°C° 0.1 mm 0 mps 548 mmHg 88%
    03:00 +9°C° 0.1 mm 0 mps 547 mmHg 88%
    04:00 +9°C° 0.1 mm 0 mps 547 mmHg 88%
    05:00 +9°C° 0 mm 0 mps 548 mmHg 86%
    06:00 +10°C° 0 mm 0 mps 549 mmHg 84%
    07:00 +11°C° 0 mm 0 mps 550 mmHg 81%
    08:00 +12°C° 0.1 mm 0 mps 551 mmHg 76%
    09:00 +15°C° 0.1 mm 1 mps 552 mmHg 71%
    10:00 +16°C° 0.1 mm 1 mps 552 mmHg 67%
    11:00 +16°C° 0.2 mm 1 mps 552 mmHg 66%
    12:00 +18°C° 0.2 mm 1 mps 551 mmHg 66%
    13:00 +18°C° 0.2 mm 1 mps 551 mmHg 66%
    14:00 +16°C° 0.4 mm 1 mps 550 mmHg 69%
    15:00 +16°C° 0.4 mm 1 mps 549 mmHg 72%
    16:00 +16°C° 0.4 mm 1 mps 549 mmHg 75%
    17:00 +14°C° 0.5 mm 1 mps 548 mmHg 81%
    18:00 +13°C° 0.5 mm 1 mps 548 mmHg 86%
    19:00 +10°C° 0.5 mm 0 mps 548 mmHg 92%
    20:00 +10°C° 0.3 mm 0 mps 548 mmHg 91%
    21:00 +10°C° 0.3 mm 0 mps 548 mmHg 91%
    22:00 +10°C° 0.3 mm 0 mps 549 mmHg 91%
    23:00 +10°C° 0.4 mm 0 mps 548 mmHg 91%
    Show more